Wind_Speed
15 12 11 12 14 17 20 22 23 23 24 26 27 22 21 21 22 22 23 21 21 20
11 10 9 10 12 13 15 17 20 22 23 22 21 22 23 24 22 17 18 19 19 21
11 11 11 11 11 12 13 15 18 20 21 22 22 22 23 23 28 30 21 18 15 15
13 13 13 13 12 12 13 15 17 20 21 21 21 21 25 22 17 16 17 19 19 17
11 12 14 14 14 13 13 14 15 18 20 20 21 21 20 21 23 23 17 18 20 22
10 11 11 12 13 13 13 13 14 16 18 20 20 21 21 20 18 20 22 19 20 22
6 7 8 8 10 11 12 13 14 16 17 18 19 19 18 16 18 19 16 17 16 16
4 5 5 5 7 9 10 10 11 13 16 16 17 17 16 19 15 16 16 16 14 12
6 6 6 6 7 9 10 11 11 13 15 16 17 17 18 15 13 13 14 14 15 15
10 9 10 9 8 9 10 12 13 14 15 15 13 12 11 9 9 11 11 14 16 17
9 6 4 4 5 7 9 11 12 12 12 10 10 10 10 6 9 5 9 12 12 12
8 6 6 6 6 5 5 7 9 10 10 10 10 11 12 11 7 9 7 9 12 14
4 2 2 2 3 3 4 5 6 7 8 9 10 10 11 12 14 13 11 12 10 11
2 2 2 2 3 4 5 5 7 8 8 9 9 9 11 13 12 13 15 15 13 12
Wind_Direction
200 205 214 223 230 231 232 232 231 228 222 219 217 221 225 230 232 234 238 241 244 247
196 201 210 217 219 218 221 225 224 225 224 222 222 219 220 227 228 237 243 241 245 250
201 205 210 214 212 214 214 214 216 218 219 217 219 217 227 230 235 235 228 237 237 239
192 201 211 220 224 220 216 213 211 211 212 213 214 218 220 218 225 218 220 236 237 237
189 205 214 219 222 221 212 206 205 206 207 209 214 215 218 213 219 234 230 223 229 236
204 213 216 215 213 209 205 202 201 203 207 208 211 213 216 233 223 232 243 250 250 250
200 207 206 202 197 195 194 195 196 198 201 205 208 208 207 207 231 251 248 242 237 238
130 151 160 172 174 175 177 180 183 188 189 196 199 206 204 241 257 258 241 233 228 225
101 118 134 149 158 155 159 161 165 172 183 189 196 212 238 252 243 229 217 212 211 210
84 97 103 115 124 132 142 151 160 173 185 201 227 232 237 239 237 235 226 229 230 230
83 92 112 115 127 141 156 167 177 191 205 209 205 202 199 209 243 252 236 233 230 231
71 76 81 87 103 132 168 190 186 185 185 192 197 196 188 202 209 232 239 231 231 238
36 33 80 110 129 148 180 191 191 187 184 191 196 199 204 208 220 234 233 233 236 226
340 299 257 243 237 233 238 243 233 219 209 208 208 208 210 206 238 238 237 238 233 222
Height
1431 1435 1439 1443 1447 1450 1454 1457 1460 1464 1468 1474 1480 1485 1489 1493 1497 1498 1501 1502 1506 1508
1430 1434 1438 1441 1445 1448 1451 1454 1458 1462 1466 1471 1475 1480 1484 1489 1492 1495 1498 1499 1502 1505
1430 1433 1436 1440 1443 1446 1449 1452 1455 1459 1464 1468 1473 1476 1480 1482 1486 1491 1493 1497 1499 1501
1429 1432 1435 1438 1440 1443 1446 1449 1452 1456 1460 1464 1469 1471 1476 1479 1483 1487 1490 1494 1497 1499
1428 1431 1434 1437 1439 1441 1443 1446 1449 1453 1457 1462 1466 1470 1473 1477 1479 1484 1486 1490 1493 1495
1429 1431 1433 1435 1436 1438 1441 1444 1447 1451 1456 1460 1464 1468 1472 1475 1478 1481 1484 1486 1489 1491
1429 1431 1432 1434 1435 1437 1439 1442 1446 1450 1455 1459 1463 1467 1471 1474 1477 1479 1481 1482 1484 1487
1430 1430 1430 1434 1436 1436 1438 1442 1445 1449 1454 1458 1463 1466 1469 1472 1474 1476 1477 1480 1482 1484
1432 1431 1432 1435 1437 1436 1438 1440 1444 1449 1453 1458 1462 1465 1467 1470 1471 1473 1475 1478 1480 1483
1434 1435 1436 1439 1438 1438 1439 1441 1444 1449 1453 1457 1460 1462 1464 1466 1468 1471 1473 1475 1477 1480
1437 1438 1440 1439 1439 1441 1443 1444 1445 1447 1451 1454 1457 1459 1463 1465 1466 1469 1471 1472 1475 1478
1438 1440 1439 1440 1440 1442 1446 1447 1446 1446 1447 1451 1455 1457 1460 1463 1464 1467 1469 1471 1473 1476
1440 1441 1440 1442 1442 1444 1448 1448 1449 1448 1447 1449 1452 1454 1457 1459 1461 1464 1467 1470 1472 1472
1444 1444 1443 1442 1443 1444 1447 1448 1450 1449 1447 1446 1449 1450 1454 1457 1459 1460 1464 1467 1468 1470